FW5493 Weather Reports


Display with metric or nautical units.
time (UTC)temp
F
wind
direction
speed
MPH
gust
MPH
rain 1hr
in
rain 24hr
in
rain mn
in
humidity
%
barometer
mb
20260509161534 51 178 5.0 9.0 0.01 0.21 0.18 87 1020.9
20260509160032 51 165 5.0 8.0 0.01 0.21 0.18 88 1020.6
20260509154531 51 182 3.0 7.0 0.01 0.21 0.18 88 1020.6
20260509153031 50 157 3.0 6.0 0.01 0.21 0.18 89 1020.3
20260509151529 50 129 1.0 4.0 0.00 0.20 0.17 89 1020.2
20260509150224 50 129 3.0 5.0 0.00 0.20 0.17 90 1020.0
20260509140029 49 178 4.0 7.0 0.00 0.20 0.17 87 1019.9
20260509134530 49 213 4.0 8.0 0.01 0.20 0.17 88 1019.9
20260509133033 49 186 5.0 8.0 0.01 0.20 0.17 89 1019.8
20260509131530 49 221 2.0 5.0 0.02 0.20 0.17 90 1019.7
20260509130032 49 0 1.0 3.0 0.02 0.20 0.17 90 1019.5
20260509124532 49 196 1.0 4.0 0.01 0.19 0.16 89 1019.3
20260509123029 49 196 4.0 7.0 0.01 0.19 0.16 89 1019.1
20260509121536 49 198 4.0 9.0 0.00 0.18 0.15 88 1018.9
20260509120031 49 194 5.0 10.0 0.00 0.18 0.15 88 1018.8
20260509114529 49 173 5.0 8.0 0.00 0.18 0.15 88 1018.7
20260509113034 49 189 3.0 6.0 0.00 0.18 0.15 87 1018.7
20260509111529 49 181 5.0 9.0 0.00 0.18 0.15 88 1018.5
20260509110035 49 227 4.0 6.0 0.00 0.18 0.15 88 1018.4
20260509104539 49 48 1.0 3.0 0.00 0.18 0.15 91 1018.4
20260509103029 49 0 0.0 2.0 0.01 0.18 0.15 90 1018.3
20260509101534 49 48 2.0 3.0 0.01 0.18 0.15 90 1018.2
20260509100029 49 47 2.0 5.0 0.02 0.18 0.15 90 1018.1
20260509094532 49 22 3.0 5.0 0.03 0.18 0.15 89 1018.1
20260509093042 49 258 2.0 3.0 0.03 0.17 0.14 88 1018.0
20260509091530 49 258 1.0 3.0 0.05 0.17 0.14 88 1018.0
20260509090030 50 258 1.0 3.0 0.05 0.16 0.13 88 1017.8
20260509084542 50 258 1.0 6.0 0.06 0.15 0.12 86 1017.4
20260509083029 50 258 3.0 9.0 0.07 0.14 0.11 86 1017.4
20260509081537 50 260 5.0 9.0 0.07 0.12 0.09 85 1017.4
20260509080041 51 232 4.0 7.0 0.08 0.11 0.08 85 1017.3
20260509074533 51 285 2.0 4.0 0.06 0.09 0.06 82 1017.1
20260509073034 52 306 2.0 4.0 0.04 0.07 0.04 80 1017.1
20260509071528 53 49 3.0 6.0 0.02 0.05 0.02 76 1017.0
20260509070032 54 0 1.0 8.0 0.00 0.03 0.00 73 1016.8
20260509064533 55 273 6.0 12.0 0.00 0.03 0.00 71 1016.4
20260509063030 55 273 5.0 9.0 0.00 0.03 0.00 69 1016.3
20260509061532 56 288 7.0 13.0 0.01 0.03 0.00 67 1016.2
20260509050038 58 293 4.0 11.0 0.00 0.00 0.00 59 1014.9
20260509044530 61 295 6.0 11.0 0.00 0.00 0.00 44 1014.5
20260509043029 61 331 6.0 8.0 0.00 0.00 0.00 44 1014.1
20260509041531 62 272 5.0 8.0 0.00 0.00 0.00 42 1013.6
20260509040032 62 279 3.0 7.0 0.00 0.00 0.00 43 1013.4
20260509034530 62 308 4.0 7.0 0.00 0.00 0.00 42 1013.1
20260509033030 62 288 4.0 7.0 0.00 0.00 0.00 42 1012.9
20260509031533 63 273 3.0 6.0 0.00 0.00 0.00 41 1012.7
20260509030030 64 283 3.0 9.0 0.00 0.00 0.00 40 1012.5
20260509024530 66 288 6.0 11.0 0.00 0.00 0.00 37 1012.1
20260509023035 67 296 8.0 13.0 0.00 0.00 0.00 36 1012.0
20260509021534 67 295 8.0 13.0 0.00 0.00 0.00 36 1011.9
20260509020035 68 302 9.0 15.0 0.00 0.00 0.00 34 1011.7
20260509014542 69 312 12.0 17.0 0.00 0.00 0.00 32 1011.9
20260509013035 69 316 10.0 17.0 0.00 0.00 0.00 31 1011.7
20260509011536 70 312 13.0 21.0 0.00 0.00 0.00 29 1011.6
20260509010033 70 336 14.0 19.0 0.00 0.00 0.00 29 1011.6
20260509004530 71 308 15.0 22.0 0.00 0.00 0.00 29 1011.5
20260509003034 71 310 15.0 21.0 0.00 0.00 0.00 29 1011.4
20260509001530 72 313 13.0 20.0 0.00 0.00 0.00 29 1011.4
20260509000029 72 316 14.0 20.0 0.00 0.00 0.00 28 1011.4
20260508234535 72 316 13.0 20.0 0.00 0.00 0.00 27 1011.4
20260508233045 73 303 9.0 15.0 0.00 0.00 0.00 26 1011.5
20260508231533 73 296 8.0 18.0 0.00 0.00 0.00 25 1011.5
20260508230029 73 275 12.0 19.0 0.00 0.00 0.00 26 1011.6
20260508224530 74 302 11.0 19.0 0.00 0.00 0.00 25 1011.6
20260508223029 75 298 10.0 17.0 0.00 0.00 0.00 23 1011.6
20260508221532 74 286 11.0 14.0 0.00 0.00 0.00 26 1011.7
20260508220031 75 291 14.0 22.0 0.00 0.00 0.00 24 1011.7
20260508214530 75 308 13.0 23.0 0.00 0.00 0.00 24 1011.9
20260508213034 74 294 13.0 23.0 0.00 0.00 0.00 24 1012.1
20260508211536 76 315 11.0 22.0 0.00 0.00 0.00 23 1012.0
20260508210032 76 275 17.0 25.0 0.00 0.00 0.00 23 1012.3
20260508204533 75 257 11.0 26.0 0.00 0.00 0.00 22 1012.4
20260508203030 75 300 13.0 20.0 0.00 0.00 0.00 23 1012.5
20260508201530 74 324 13.0 21.0 0.00 0.00 0.00 24 1012.5
20260508200038 74 305 11.0 26.0 0.00 0.00 0.00 25 1012.7
20260508194530 74 276 10.0 19.0 0.00 0.00 0.00 23 1012.7
20260508193030 74 299 16.0 22.0 0.00 0.00 0.00 21 1012.8
20260508191537 73 274 15.0 21.0 0.00 0.00 0.00 21 1013.0
20260508190030 73 294 15.0 22.0 0.00 0.00 0.00 24 1013.1
20260508184532 72 284 10.0 18.0 0.00 0.00 0.00 30 1013.2
20260508183031 72 254 13.0 21.0 0.00 0.00 0.00 33 1013.8
20260508181531 71 240 10.0 18.0 0.00 0.00 0.00 33 1013.9
20260508180032 70 271 10.0 16.0 0.00 0.00 0.00 35 1014.0
20260508174534 69 255 4.0 14.0 0.00 0.00 0.00 33 1014.2
20260508173030 69 267 7.0 16.0 0.00 0.00 0.00 32 1014.4
20260508171532 69 289 10.0 16.0 0.00 0.00 0.00 32 1014.4
20260508170038 69 287 9.0 14.0 0.00 0.00 0.00 34 1014.5
20260508164530 68 237 11.0 17.0 0.00 0.00 0.00 37 1014.5
20260508163033 68 227 8.0 15.0 0.00 0.00 0.00 44 1014.7